Lapse_Rate
6.8 6.8 6.1 6.3 6.7 7.2 7.5 7.5 7.7 7.3 6.9 6.9 6.9 6.8 7.1 7.0 7.0 6.7 6.8 6.9 6.8 6.5 6.6 6.8 6.7 6.6 6.3 6.2 6.3 6.6 6.5 6.4 6.0 5.9 6.2 6.4 6.3 6.1 5.9 5.8 5.7 5.5 5.7 5.5
6.3 6.1 6.8 7.1 7.2 7.3 7.5 7.4 7.4 7.2 7.2 6.9 6.9 7.0 7.1 6.8 6.9 6.8 6.3 6.6 6.9 6.4 6.1 6.1 6.4 6.4 6.6 6.4 6.1 6.3 6.1 6.7 6.3 6.2 6.4 6.4 6.4 6.3 6.1 5.9 5.7 5.5 5.5 5.4
6.5 7.3 7.4 7.2 7.2 7.2 7.2 7.5 7.3 7.5 7.4 7.1 6.7 6.1 6.8 7.3 7.2 7.0 6.8 6.5 6.5 6.2 5.8 6.1 6.3 6.6 6.6 6.5 6.0 6.4 6.3 6.1 6.5 6.7 6.6 6.5 6.4 6.5 6.3 6.1 5.7 5.5 5.4 5.3
6.0 7.0 7.0 7.1 7.0 7.3 7.1 7.5 7.8 7.6 7.7 7.2 7.3 5.4 6.7 7.0 7.0 6.8 6.9 6.8 6.8 6.8 6.3 5.7 5.9 6.0 6.4 6.5 6.2 5.9 6.0 6.4 6.8 6.7 6.7 6.6 6.5 6.5 6.5 6.3 5.8 5.3 5.2 5.2
6.2 6.8 6.8 6.8 7.0 7.5 7.3 7.8 8.0 7.9 7.6 7.4 6.9 6.1 5.8 6.5 6.7 7.1 7.4 7.5 6.9 6.8 6.7 5.7 5.6 6.0 6.2 6.2 6.2 6.3 6.5 6.8 6.9 6.8 6.7 6.7 6.7 6.6 6.5 6.4 6.0 5.4 5.0 4.8
6.4 6.9 7.0 6.8 7.3 7.6 7.6 7.6 7.6 7.7 7.2 6.6 7.0 6.8 6.0 6.0 7.3 7.8 7.6 7.5 7.3 7.1 6.8 6.6 6.1 6.0 6.2 6.4 6.6 6.8 6.8 7.0 7.0 7.0 6.9 6.7 6.6 6.6 6.4 6.1 5.5 5.0 4.8 4.7
6.8 6.8 6.9 7.2 7.3 7.4 7.5 7.4 6.7 6.8 6.6 6.3 7.5 6.9 6.1 7.0 7.3 7.6 7.8 7.6 7.4 7.1 6.7 7.0 6.9 6.8 6.7 6.5 6.7 6.8 7.0 7.2 7.1 7.0 6.9 6.8 6.7 6.4 6.2 6.0 5.2 4.8 4.7 4.6
6.5 6.3 6.8 6.9 7.1 7.3 7.4 7.5 7.0 6.8 6.8 6.5 7.4 6.4 6.3 7.0 7.3 7.6 7.9 7.6 7.4 7.3 7.0 6.8 6.8 6.6 6.5 6.4 6.6 7.0 7.0 7.1 7.0 6.9 6.9 6.6 6.4 6.2 5.8 5.6 5.0 4.6 4.7 4.6
6.6 6.4 6.8 7.3 7.5 7.3 7.2 7.1 7.2 7.7 7.8 7.4 7.5 6.9 7.0 7.3 7.3 7.6 7.5 7.8 7.7 7.7 7.7 7.2 6.9 6.8 6.5 6.4 6.6 6.8 6.8 6.8 6.7 6.7 6.5 6.3 6.2 6.0 5.7 5.3 4.8 4.6 4.7 4.8
6.7 6.6 6.7 7.2 7.3 7.2 7.1 7.4 7.1 6.9 6.8 6.9 6.5 6.8 7.0 7.4 7.6 7.6 7.7 7.8 7.8 7.7 7.5 7.4 7.3 7.2 7.1 6.9 6.8 6.7 6.6 6.5 6.4 6.3 6.1 6.0 5.8 5.7 5.5 5.3 5.1 5.0 4.8 4.7
6.6 6.6 6.6 7.1 6.7 6.7 6.6 6.6 6.8 7.2 7.0 6.9 6.6 6.9 7.3 7.6 7.8 7.9 7.8 7.9 7.9 7.7 7.6 7.6 7.3 7.3 7.0 6.8 6.8 6.9 6.6 6.3 6.2 6.0 5.8 5.6 5.4 5.3 5.1 5.1 4.9 4.8 4.6 4.5
6.7 6.2 6.1 6.8 7.0 6.8 6.8 6.6 6.8 7.0 6.8 6.9 7.4 7.0 7.6 7.8 7.8 8.0 7.9 8.1 7.9 7.5 7.1 7.2 7.2 7.0 6.8 6.6 6.5 6.4 6.1 5.8 5.7 5.5 5.3 5.1 5.0 4.9 4.7 4.7 4.6 4.4 4.3 4.3
6.6 6.6 6.5 6.6 6.7 6.8 6.6 6.5 6.6 6.7 7.1 7.1 6.9 6.3 7.2 8.0 8.1 7.9 8.1 8.1 7.7 7.5 7.2 7.1 6.8 6.6 6.5 6.4 6.0 5.7 5.4 5.3 5.1 4.9 4.7 4.6 4.5 4.4 4.3 4.2 4.1 4.0 4.0 4.0
6.3 6.2 6.4 6.5 6.9 6.2 5.9 6.1 6.2 6.1 6.5 6.6 6.5 6.8 7.1 7.6 8.0 8.0 8.2 8.1 7.7 7.3 7.2 7.1 6.9 6.6 6.4 6.1 5.7 5.2 4.9 4.7 4.5 4.4 4.3 4.2 4.1 4.0 3.9 3.8 3.8 3.8 3.7 3.8
6.4 6.0 6.1 6.4 6.0 6.0 6.0 6.0 6.1 5.9 6.0 6.3 6.4 6.8 7.1 7.5 7.8 8.0 8.0 8.0 7.6 7.8 7.4 7.2 7.1 6.5 6.1 5.9 5.6 5.2 4.7 4.4 4.3 4.1 4.0 3.9 3.8 3.7 3.6 3.5 3.5 3.5 3.6 3.6
6.8 6.2 6.3 6.2 6.5 6.4 5.8 5.9 6.2 5.8 6.0 6.0 6.0 6.8 7.2 7.1 6.7 6.8 6.8 7.1 7.4 7.4 7.7 7.5 7.2 6.9 6.4 6.1 5.3 4.8 4.4 4.4 4.2 4.0 3.8 3.7 3.6 3.5 3.4 3.4 3.3 3.3 3.3 3.2
6.7 6.6 6.5 6.0 6.3 6.5 6.4 6.2 6.8 6.5 6.2 6.2 5.9 6.4 6.7 7.1 6.9 6.9 6.9 6.7 7.0 6.9 7.0 6.8 6.5 6.2 6.0 5.5 4.8 4.3 4.1 3.9 3.8 3.6 3.4 3.2 3.1 3.1 2.9 2.9 3.1 3.2 3.3 3.4
7.5 7.6 6.6 6.3 6.5 5.1 6.8 6.9 7.5 7.0 6.8 6.7 6.4 6.0 6.3 6.7 6.7 6.7 6.7 6.6 6.5 6.4 6.1 6.2 6.3 6.0 5.5 4.8 4.3 3.9 3.6 3.4 3.0 2.7 2.8 3.0 3.0 3.0 3.0 3.1 3.2 3.3 3.2 2.9
8.5 8.0 7.0 7.1 6.8 7.2 7.3 7.1 7.1 7.5 7.2 6.9 6.9 6.7 6.1 6.3 6.5 6.6 6.6 6.5 6.4 6.4 6.3 6.0 5.5 5.0 4.4 4.1 3.8 3.4 3.3 3.3 3.1 3.0 3.0 2.9 2.8 2.9 3.1 3.2 2.9 3.1 3.3 3.4
8.5 7.7 7.4 7.3 6.8 5.5 7.6 7.6 7.5 7.3 7.1 7.1 7.2 7.0 6.5 6.1 6.2 6.7 6.6 6.6 6.5 6.2 5.5 5.4 5.1 4.7 3.7 3.4 3.2 3.1 3.0 2.8 2.7 2.7 2.8 2.9 3.1 2.8 2.5 2.9 3.4 3.5 3.6 3.6
7.6 8.0 7.9 7.8 7.6 7.7 7.7 7.6 7.3 6.6 7.0 6.9 7.0 6.6 6.2 5.9 5.9 6.0 6.4 6.3 5.8 5.2 5.0 4.4 3.8 3.4 3.1 2.9 2.8 2.7 2.6 2.6 2.8 2.9 3.1 3.0 2.7 3.0 3.2 3.4 3.6 3.6 3.5 3.5
7.1 7.7 8.3 8.3 8.0 7.7 7.7 7.3 6.8 7.1 6.9 6.9 7.2 6.6 6.5 6.2 5.6 5.4 5.2 5.0 4.9 4.5 4.0 3.5 3.2 3.0 2.9 2.8 2.6 2.7 2.8 2.9 3.1 2.8 2.9 3.1 3.2 3.3 3.4 3.4 3.4 3.4 3.4 3.4
7.2 7.4 7.8 7.9 7.7 7.5 7.1 7.0 7.0 6.9 6.7 6.7 6.6 6.3 5.9 5.7 5.2 4.8 4.6 4.4 3.9 3.3 3.0 2.8 2.8 2.9 2.7 2.7 2.6 2.8 3.1 2.8 3.0 3.0 3.1 3.2 3.3 3.3 3.4 3.4 3.4 3.5 3.5 3.4
6.9 7.1 7.2 7.3 7.6 7.4 7.2 7.2 6.8 6.6 6.2 6.0 6.2 6.2 5.7 5.2 4.8 4.5 4.2 3.5 3.0 2.6 2.6 2.6 2.5 2.5 2.5 2.7 2.8 2.9 3.1 3.1 3.1 3.2 3.3 3.3 3.5 3.6 3.7 3.7 3.6 3.6 3.4 3.2
6.9 7.1 7.6 7.7 7.6 7.3 7.1 7.1 7.0 6.4 5.9 5.7 5.7 5.6 5.0 4.5 4.2 3.9 3.3 2.8 2.5 2.4 2.4 2.4 2.3 2.6 2.6 2.7 2.9 3.0 3.2 3.3 3.3 3.6 3.8 3.9 4.0 4.0 4.0 3.9 3.6 3.3 3.0 2.7
7.1 7.4 7.7 7.7 7.8 7.6 6.9 6.9 7.1 6.3 5.4 5.1 4.8 4.9 4.2 3.7 3.7 3.2 2.9 2.6 2.5 2.4 2.4 2.6 2.6 2.8 2.9 3.0 3.1 3.4 3.6 3.8 4.0 4.1 4.2 4.3 4.2 4.2 3.7 3.3 3.0 2.7 2.4 2.1
Wind_Speed
4 4 7 7 6 5 6 5 8 0 9 6 13 6 13 14 12 11 11 10 10 10 7 7 5 5 6 5 7 6 6 7 4 3 2 4 5 6 11 14 16 17 16 17
1 9 6 8 6 8 9 6 2 3 9 6 7 12 9 16 14 16 15 14 12 11 10 8 7 5 6 6 6 6 6 6 4 4 2 4 5 9 10 12 16 17 17 17
7 6 11 10 9 14 14 13 6 4 3 1 3 5 6 9 3 10 11 12 13 15 13 12 10 8 7 6 5 6 6 6 4 7 8 8 9 5 5 7 11 16 18 18
11 12 15 18 14 12 14 7 7 12 10 6 9 5 6 7 13 15 15 16 17 17 14 12 12 10 8 7 6 6 6 6 6 7 5 7 5 5 3 5 9 14 18 18
7 11 10 17 21 13 11 8 8 10 10 4 4 2 5 11 7 16 22 20 16 15 16 15 13 11 9 8 7 6 7 7 7 8 7 7 9 7 5 4 8 12 16 18
8 7 8 11 8 16 5 4 4 4 3 5 7 7 6 7 12 8 13 17 18 17 15 14 13 13 10 8 7 6 9 9 7 8 8 9 10 8 7 7 6 6 10 13
4 13 5 5 6 6 5 6 3 4 5 7 11 8 18 11 13 12 23 20 18 18 16 15 15 12 11 10 9 7 9 9 8 9 10 9 10 10 10 8 6 7 6 7
8 9 14 9 12 11 13 13 6 9 9 5 9 9 6 3 4 2 15 19 19 19 17 17 15 12 12 12 8 9 9 10 8 10 10 9 10 7 7 8 7 6 6 9
4 7 5 14 15 16 7 14 15 5 4 2 5 5 3 2 1 4 17 20 19 18 16 17 14 12 11 10 10 10 11 11 10 10 8 9 11 9 9 12 12 10 10 11
5 6 5 7 16 16 14 8 9 10 9 15 6 6 5 6 8 11 18 19 17 15 17 16 14 12 9 8 9 10 10 11 10 9 8 8 10 12 12 13 11 12 11 12
3 6 3 4 11 22 14 12 8 8 9 10 5 7 5 9 15 19 17 17 19 18 17 15 13 12 11 9 9 9 9 10 9 9 8 9 8 12 12 11 11 11 13 13
3 3 4 6 3 3 22 19 20 8 15 13 10 12 1 3 9 16 17 17 17 18 16 15 15 13 12 10 9 8 9 9 8 8 8 7 9 10 8 8 11 13 13 14
2 2 4 4 0 0 2 7 11 18 0 16 10 10 4 6 13 16 20 18 17 18 17 15 13 12 10 9 9 8 7 7 6 7 7 7 6 6 6 7 11 11 11 12
2 3 5 8 9 1 10 8 4 10 6 14 19 4 4 8 15 17 18 20 18 17 17 14 12 11 9 8 8 7 6 5 5 6 6 6 5 5 5 9 10 10 10 10
1 6 4 10 11 8 11 12 11 11 11 8 15 15 11 17 17 16 17 17 20 17 16 15 13 11 10 10 8 6 5 5 4 6 6 5 4 8 8 8 7 7 8 8
4 4 3 6 10 11 12 9 10 13 13 13 15 10 4 14 15 17 18 19 18 18 16 15 13 12 10 8 7 7 6 6 5 6 6 5 5 3 3 5 5 5 5 5
4 3 2 5 5 4 6 14 16 9 6 4 10 6 12 15 18 22 23 21 21 18 17 16 15 13 12 9 9 8 7 6 6 6 5 5 4 4 4 3 3 3 3 3
5 5 3 5 3 4 6 2 2 5 1 4 0 4 12 17 12 13 15 16 20 19 17 15 12 11 11 9 7 7 6 5 6 6 5 4 4 4 3 3 3 2 2 2
16 5 3 3 6 6 8 3 3 1 2 4 3 10 12 16 17 7 12 15 17 17 15 13 13 12 11 10 9 8 7 6 5 5 5 4 4 4 3 3 2 2 2 2
11 12 7 2 4 8 5 1 5 1 4 5 4 10 17 12 6 4 13 17 17 16 15 14 13 12 11 8 8 8 7 5 5 5 4 4 3 3 2 2 3 2 2 3
1 4 15 11 7 5 3 7 6 4 3 5 1 8 9 3 3 17 17 16 16 16 16 15 12 10 9 8 7 8 6 6 6 6 5 4 4 3 4 4 2 3 4 4
6 4 3 3 6 9 2 4 3 3 5 3 4 6 12 17 19 19 18 17 18 18 14 12 11 10 8 7 7 8 8 7 6 6 6 6 5 4 4 4 4 5 5 5
3 2 2 3 2 3 4 5 5 4 4 2 5 9 17 17 17 18 16 17 16 15 13 11 12 11 8 5 6 9 7 7 6 7 6 5 5 5 6 5 4 3 4 3
2 1 2 4 2 1 2 2 3 3 2 5 9 11 15 19 17 18 16 15 13 12 12 11 11 11 9 7 10 8 8 6 7 6 5 4 4 4 4 3 3 2 1 2
3 2 4 4 3 2 3 2 4 4 7 10 10 12 15 18 17 17 15 14 12 12 12 11 11 11 10 9 8 8 7 6 6 6 5 4 4 3 2 1 1 1 4 5
3 5 3 4 4 4 2 1 2 9 11 12 16 14 13 17 17 17 14 12 12 12 12 11 11 11 10 9 8 7 7 6 6 6 4 2 2 2 2 1 3 9 9 11
Wind_Direction
220 176 197 188 198 167 188 205 217 360 169 139 200 203 189 184 194 190 187 190 189 186 168 169 156 141 107 86 80 67 64 43 53 69 72 65 72 64 53 51 40 39 44 45
180 224 207 194 213 228 242 228 196 355 167 186 181 221 180 185 208 194 184 189 188 175 175 176 170 152 120 96 88 82 70 60 50 91 93 100 98 78 69 56 51 41 44 46
189 222 210 209 212 217 228 235 178 166 149 259 171 248 175 218 229 195 196 191 185 182 178 179 177 160 134 111 95 89 85 75 57 85 109 103 105 93 61 44 53 43 44 46
234 245 205 222 228 213 232 209 186 145 151 210 169 260 235 188 197 197 197 194 190 181 177 173 168 158 143 117 103 96 91 85 66 84 91 85 97 106 84 74 68 58 49 46
222 203 206 216 225 226 238 202 158 167 185 146 181 284 253 131 196 210 207 198 190 178 169 166 162 154 134 121 109 102 98 91 86 90 97 101 102 106 111 89 75 62 55 49
226 251 212 213 205 220 177 111 53 124 95 250 186 191 215 184 211 225 201 194 180 166 161 156 140 133 129 120 116 113 106 93 88 91 91 104 110 112 111 95 80 65 57 50
305 247 238 182 202 201 147 135 203 218 202 243 181 202 242 210 216 208 195 185 167 155 145 140 135 133 133 134 130 119 111 97 89 88 88 89 93 92 87 87 84 76 64 50
222 242 212 197 203 203 207 188 195 219 220 223 180 232 240 314 352 221 175 165 153 151 148 142 139 140 142 142 129 122 114 102 92 87 82 81 82 83 83 81 82 74 70 57
241 250 284 211 209 192 188 209 208 271 199 183 218 287 304 311 250 130 143 149 152 147 144 138 137 141 139 138 135 127 118 106 93 87 83 77 77 80 83 81 79 72 66 71
213 264 232 242 206 215 206 159 195 220 222 240 228 234 225 227 197 152 151 152 145 140 136 135 131 126 117 110 118 114 109 103 102 96 92 84 82 81 83 82 81 78 68 62
324 239 256 223 197 206 208 219 221 190 211 227 240 245 207 209 177 170 154 147 143 139 136 134 127 123 119 113 112 110 107 107 102 98 96 92 89 86 84 83 76 71 69 63
187 300 294 246 290 333 222 219 208 206 212 228 239 245 354 232 168 145 139 139 136 134 135 132 131 129 125 122 114 109 108 106 105 105 98 91 90 85 82 78 75 75 70 67
23 292 306 292 261 37 197 245 235 250 176 223 206 244 348 110 129 142 140 141 140 136 133 132 132 133 127 119 116 111 104 103 101 103 101 94 90 89 82 80 79 72 70 63
157 225 224 263 275 168 288 206 255 281 241 223 226 221 254 162 151 152 149 143 143 141 140 137 131 129 124 118 116 109 99 97 106 103 100 97 92 92 89 88 80 73 66 60
251 265 235 261 279 278 267 254 239 227 264 253 254 227 192 184 161 152 143 143 142 143 144 142 137 131 127 124 121 116 111 110 114 111 105 109 109 102 96 90 83 74 62 54
163 270 290 278 268 257 250 261 248 245 256 265 258 278 262 142 136 149 153 153 147 148 142 135 132 127 125 129 131 131 130 125 119 112 112 114 109 107 102 91 82 71 53 42
175 199 29 266 278 288 258 230 224 230 227 220 250 232 149 154 167 164 157 159 152 148 143 142 144 142 143 147 148 145 143 135 123 119 122 118 113 103 96 92 81 60 43 25
189 163 156 250 12 265 260 342 357 270 359 326 69 152 177 167 139 142 151 151 145 143 145 141 140 138 140 135 124 121 127 122 120 116 117 118 111 99 99 92 70 42 25 1
208 168 262 185 216 286 305 3 36 40 266 332 151 105 101 108 97 76 131 139 136 134 132 132 134 133 131 126 124 124 120 116 115 113 113 120 116 106 89 67 45 24 26 8
199 206 199 109 209 215 243 340 8 270 259 313 151 141 138 139 159 152 137 128 124 125 128 128 127 124 120 123 128 124 124 127 119 128 128 131 138 115 99 58 49 42 35 6
216 242 218 217 235 286 272 296 302 172 271 325 53 156 158 155 94 126 119 116 117 119 122 119 121 125 124 127 131 123 132 120 121 117 112 103 89 96 84 78 72 40 36 28
196 196 226 242 219 243 253 332 184 296 308 14 53 99 100 111 117 120 121 122 122 123 120 121 118 117 125 139 140 127 113 107 102 98 93 84 74 63 65 59 41 49 47 44
268 189 204 230 319 206 241 189 254 243 273 344 112 123 124 122 122 122 123 123 119 121 121 120 121 124 132 134 121 111 103 101 95 88 85 82 69 66 59 61 57 58 43 29
317 167 230 43 271 232 306 287 235 298 159 103 119 124 127 123 122 117 116 116 116 118 119 123 125 122 121 109 104 98 102 95 98 98 90 83 79 75 59 54 48 62 276 271
202 98 183 262 295 14 340 342 308 88 103 103 103 118 123 120 118 118 115 114 115 118 127 127 124 120 110 106 99 100 96 100 102 94 85 75 73 64 36 36 249 241 274 246
186 195 163 240 208 140 211 255 98 109 109 111 112 108 109 114 114 113 110 115 121 125 125 120 118 115 111 105 98 93 90 90 93 92 79 67 67 41 56 52 340 344 346 344